Sheldon, IA

6:18 PM CST on December 15, 2017 (GMT -0600)
Sheldon Municipal

Weather History for KSHL - May, 2013

Change the Weather History Date:

Thursday, May 23, 2013

  Actual Average Record
Temperature  
Mean Temperature 56 °F -  
Max Temperature 68 °F 73 °F 95 °F (1964)
Min Temperature 44 °F 50 °F 34 °F (1963)
Degree Days  
Heating Degree Days 9    
Growing Degree Days 6 (Base 50)    
Moisture  
Dew Point 42 °F    
Average Humidity 64    
Maximum Humidity 100    
Minimum Humidity 23    
Precipitation  
Precipitation 0.00 in - - ()
Sea Level Pressure  
Sea Level Pressure 30.18 in    
Wind  
Wind Speed 13 mph (NE)    
Max Wind Speed 21 mph    
Max Gust Speed 29 mph    
Visibility 10 miles    
Events      
Averages and records for this station are not official NWS values.
T = Trace of Precipitation, MM = Missing Value Source: NWS Daily Summary

Daily Weather History Graph

Daily Weather History Graph

Search for Another Location

Airport or City:

Trip Planner

Search our weather history database for the weather conditions in past years. The results will help you decide how hot, cold, wet, or windy it might be!

Date:

Astronomy

May. 23, 2013 Rise Set
Actual Time 5:51 AM CDT 8:48 PM CDT
Civil Twilight 5:18 AM CDT 9:22 PM CDT
Nautical Twilight 4:35 AM CDT 10:05 PM CDT
Astronomical Twilight 3:44 AM CDT 10:56 PM CDT
Moon 7:20 PM CDT (5/23) 4:40 AM CDT (5/23)
Length of Visible Light 16h 04m
Length of Day
14h 57m
Waxing Gibbous, 97% of the Moon is Illuminated
May 23
Waxing Gibbous
May 24
Full
May 31
Last Quarter
Jun 8
New
Jun 16
First Quarter

Hourly Weather History & Observations

Time (CDT) Temp. Windchill Dew Point Humidity Pressure Visibility Wind Dir Wind Speed Gust Speed Precip Events Conditions
12:15 AM 50.0 °F - 50.0 °F 100% 29.99 in 10.0 mi NNE 12.7 mph - N/A   Overcast
12:35 AM 50.0 °F - 50.0 °F 100% 29.99 in 10.0 mi NNE 12.7 mph 18.4 mph N/A   Overcast
12:55 AM 50.0 °F - 50.0 °F 100% 30.00 in 10.0 mi NNE 16.1 mph - N/A   Overcast
1:15 AM 50.0 °F - 50.0 °F 100% 30.01 in 10.0 mi NE 15.0 mph - N/A   Overcast
1:35 AM 50.0 °F - 50.0 °F 100% 30.01 in 10.0 mi NE 12.7 mph - N/A   Overcast
1:55 AM 50.0 °F - 50.0 °F 100% 30.02 in 10.0 mi NNE 12.7 mph - N/A   Overcast
2:15 AM 50.0 °F - 50.0 °F 100% 30.03 in 10.0 mi NNE 10.4 mph 17.3 mph N/A   Overcast
2:35 AM 50.0 °F - 50.0 °F 100% 30.03 in 10.0 mi NNE 9.2 mph - N/A   Overcast
2:55 AM 50.0 °F - 50.0 °F 100% 30.03 in 10.0 mi ENE 6.9 mph - N/A   Mostly Cloudy
3:15 AM 50.0 °F - 48.2 °F 94% 30.05 in 10.0 mi NNE 9.2 mph - N/A   Scattered Clouds
3:35 AM 48.2 °F - 48.2 °F 100% 30.05 in 10.0 mi North 6.9 mph 12.7 mph N/A   Partly Cloudy
3:55 AM 48.2 °F - 46.4 °F 93% 30.06 in 10.0 mi NNE 9.2 mph - N/A   Clear
4:15 AM 46.4 °F 41.9 °F 46.4 °F 100% 30.08 in 10.0 mi North 9.2 mph - N/A   Clear
4:35 AM 46.4 °F 42.9 °F 44.6 °F 93% 30.09 in 10.0 mi North 6.9 mph - N/A   Clear
4:55 AM 44.6 °F 39.7 °F 44.6 °F 100% 30.10 in 10.0 mi North 9.2 mph - N/A   Clear
5:15 AM 44.6 °F 39.2 °F 44.6 °F 100% 30.11 in 10.0 mi North 10.4 mph - N/A   Clear
5:35 AM 44.6 °F 38.8 °F 44.6 °F 100% 30.13 in 10.0 mi North 11.5 mph - N/A   Clear
5:55 AM 44.6 °F 39.2 °F 42.8 °F 93% 30.14 in 10.0 mi North 10.4 mph - N/A   Clear
6:15 AM 44.6 °F 39.2 °F 42.8 °F 93% 30.14 in 10.0 mi North 10.4 mph - N/A   Clear
6:35 AM 44.6 °F 40.2 °F 44.6 °F 100% 30.15 in 10.0 mi North 8.1 mph - N/A   Clear
6:55 AM 46.4 °F 41.1 °F 44.6 °F 93% 30.16 in 10.0 mi NNE 11.5 mph - N/A   Clear
7:15 AM 46.4 °F 40.1 °F 44.6 °F 93% 30.16 in 10.0 mi NNE 15.0 mph - N/A   Clear
7:35 AM 48.2 °F - 44.6 °F 87% 30.17 in 10.0 mi NNE 16.1 mph - N/A   Clear
7:55 AM 48.2 °F - 44.6 °F 87% 30.18 in 10.0 mi NNE 17.3 mph - N/A   Clear
8:15 AM 50.0 °F - 44.6 °F 82% 30.18 in - NNE 16.1 mph - N/A   Clear
8:35 AM 51.8 °F - 46.4 °F 82% 30.19 in 10.0 mi NE 15.0 mph - N/A   Clear
8:55 AM 53.6 °F - 46.4 °F 77% 30.20 in 10.0 mi NE 13.8 mph - N/A   Clear
9:15 AM 55.4 °F - 46.4 °F 72% 30.20 in 10.0 mi NNE 12.7 mph - N/A   Clear
9:35 AM 55.4 °F - 46.4 °F 72% 30.22 in 10.0 mi NE 15.0 mph - N/A   Clear
9:55 AM 55.4 °F - 46.4 °F 72% 30.22 in 10.0 mi NNE 15.0 mph - N/A   Clear
10:15 AM 57.2 °F - 48.2 °F 72% 30.23 in 10.0 mi NNE 13.8 mph 19.6 mph N/A   Clear
10:35 AM 57.2 °F - 46.4 °F 67% 30.23 in 10.0 mi NE 15.0 mph - N/A   Clear
10:55 AM 59.0 °F - 46.4 °F 63% 30.24 in 10.0 mi ENE 12.7 mph 19.6 mph N/A   Clear
11:15 AM 60.8 °F - 46.4 °F 59% 30.23 in 10.0 mi NE 15.0 mph 24.2 mph N/A   Clear
11:35 AM 62.6 °F - 46.4 °F 55% 30.23 in 10.0 mi NE 20.7 mph - N/A   Clear
11:55 AM 62.6 °F - 46.4 °F 55% 30.24 in 10.0 mi NNE 16.1 mph 23.0 mph N/A   Clear
12:15 PM 62.6 °F - 46.4 °F 55% 30.23 in 10.0 mi NE 20.7 mph 28.8 mph N/A   Clear
12:35 PM 64.4 °F - 46.4 °F 52% 30.24 in 10.0 mi NE 17.3 mph 25.3 mph N/A   Clear
12:55 PM 64.4 °F - 46.4 °F 52% 30.23 in 10.0 mi NE 16.1 mph 24.2 mph N/A   Partly Cloudy
1:15 PM 64.4 °F - 44.6 °F 49% 30.23 in 10.0 mi NNE 17.3 mph 26.5 mph N/A   Scattered Clouds
1:35 PM 64.4 °F - 44.6 °F 49% 30.23 in 10.0 mi NE 20.7 mph - N/A   Scattered Clouds
1:55 PM 64.4 °F - 42.8 °F 45% 30.23 in 10.0 mi NNE 13.8 mph 24.2 mph N/A   Partly Cloudy
2:15 PM 66.2 °F - 42.8 °F 43% 30.23 in 10.0 mi NNE 18.4 mph 24.2 mph N/A   Clear
2:35 PM 66.2 °F - 42.8 °F 43% 30.22 in 10.0 mi NE 13.8 mph 21.9 mph N/A   Clear
2:55 PM 66.2 °F - 42.8 °F 43% 30.22 in 10.0 mi NNE 15.0 mph 24.2 mph N/A   Clear
3:15 PM 66.2 °F - 39.2 °F 37% 30.22 in 10.0 mi NE 18.4 mph 25.3 mph N/A   Clear
3:35 PM 66.2 °F - 35.6 °F 32% 30.22 in 10.0 mi ENE 18.4 mph 26.5 mph N/A   Clear
3:55 PM 66.2 °F - 35.6 °F 32% 30.22 in 10.0 mi ENE 18.4 mph 24.2 mph N/A   Clear
4:15 PM 66.2 °F - 33.8 °F 30% 30.22 in 10.0 mi ENE 17.3 mph 24.2 mph N/A   Clear
4:35 PM 66.2 °F - 33.8 °F 30% 30.22 in 10.0 mi NE 15.0 mph 23.0 mph N/A   Clear
4:55 PM 66.2 °F - 30.2 °F 26% 30.22 in 10.0 mi NE 15.0 mph 24.2 mph N/A   Clear
5:15 PM 66.2 °F - 26.6 °F 23% 30.22 in 10.0 mi ENE 12.7 mph - N/A   Clear
5:35 PM 66.2 °F - 30.2 °F 26% 30.22 in 10.0 mi NE 11.5 mph 18.4 mph N/A   Clear
5:55 PM 68.0 °F - 30.2 °F 24% 30.22 in 10.0 mi East 10.4 mph 19.6 mph N/A   Clear
6:15 PM 66.2 °F - 28.4 °F 24% 30.23 in 10.0 mi East 9.2 mph 18.4 mph N/A   Clear
6:35 PM 66.2 °F - 30.2 °F 26% 30.23 in 10.0 mi East 12.7 mph 19.6 mph N/A   Clear
6:55 PM 66.2 °F - 32.0 °F 28% 30.22 in 10.0 mi ENE 13.8 mph - N/A   Clear
7:15 PM 64.4 °F - 30.2 °F 28% 30.22 in 10.0 mi East 12.7 mph 19.6 mph N/A   Clear
7:35 PM 64.4 °F - 32.0 °F 30% 30.23 in 10.0 mi ENE 13.8 mph - N/A   Clear
7:55 PM 64.4 °F - 32.0 °F 30% 30.23 in 10.0 mi East 13.8 mph - N/A   Clear
8:15 PM 62.6 °F - 32.0 °F 32% 30.23 in 10.0 mi ESE 11.5 mph - N/A   Clear
8:35 PM 60.8 °F - 33.8 °F 36% 30.24 in 10.0 mi ESE 10.4 mph - N/A   Clear
8:55 PM 59.0 °F - 33.8 °F 39% 30.24 in 10.0 mi ESE 9.2 mph - N/A   Clear
9:15 PM 55.4 °F - 35.6 °F 47% 30.25 in 10.0 mi ESE 8.1 mph - N/A   Clear
9:35 PM 55.4 °F - 35.6 °F 47% 30.25 in 10.0 mi East 8.1 mph - N/A   Clear
9:55 PM 55.4 °F - 35.6 °F 47% 30.26 in 10.0 mi East 8.1 mph - N/A   Clear
10:15 PM 53.6 °F - 37.4 °F 54% 30.27 in 10.0 mi ESE 6.9 mph - N/A   Clear
10:35 PM 50.0 °F - 37.4 °F 62% 30.28 in 10.0 mi ESE 5.8 mph - N/A   Clear
10:55 PM 50.0 °F - 37.4 °F 62% 30.28 in 10.0 mi ESE 5.8 mph - N/A   Clear
11:15 PM 48.2 °F - 37.4 °F 66% 30.28 in 10.0 mi East 6.9 mph - N/A   Clear
11:35 PM 48.2 °F - 37.4 °F 66% 30.29 in 10.0 mi East 4.6 mph - N/A   Clear
11:55 PM 46.4 °F 43.5 °F 37.4 °F 71% 30.29 in 10.0 mi East 5.8 mph - N/A   Clear